Weather in Mizhgirie

Ukraine / Zakarpattia District     48°31′42″N   23°30′05″E
temp.,
°C
wind,
m/s
gust,
m/s
humid.,
%
clouds,
%
prec.,
mm/h
press.,
hPa
HPBL,
m
12 august, fri
fri1200:00+10ne22904 0.0 102137
03:00+10ne22904 0.0 102132
06:00+10ne22893 0.0 102134
09:00+17ne12580 0.0 1020289
12:00+24wnw033923 0.0 10181859
15:00+20ene357295 0.6 1018454
18:00+22nne2463100 0.6 1017589
21:00+16ne2284100 0.6 101745
13 august, sat
sat1300:00+13ne2296100 0.0 101749
03:00+13ne2295100 0.0 101737
06:00+12ne229696 0.0 101635
09:00+17ne227521 0.0 1014357
12:00+24wnw015357 0.1 10121453
15:00+21ne127740 3.9 1011446
18:00+20ne118599 4.8 101172
21:00+16ne2293100 5.9 101134
14 august, sun
sun1400:00+14ne229696 0.0 101151
03:00+14ne2297100 0.0 101135
06:00+14ne229885 0.0 101046
09:00+17nne238899 0.1 1010317
12:00+22nne1264100 0.4 1009772
15:00+25nne1248100 0.8 10081500
18:00+24ne2252100 0.3 10081112
21:00+17ne228495 0.9 100821
15 august, mon
mon1500:00+15ne2289100 0.1 100926
03:00+14ene2188100 0.1 100817
06:00+14ene118798 0.0 100812
09:00+19se0174100 0.1 1007165
12:00+22sw216398 0.7 1007891
15:00+21sse118095 5.7 1008223
18:00+20ene128797 2.4 100794
21:00+15e119430 4.1 100814
16 august, tue
tue1600:00+14e229566 2.6 100926
03:00+14e219574 2.6 100918
06:00+14ese229317 0.5 100915
09:00+18sse22865 1.0 1009143
12:00+24ssw235675 1.0 1009938
15:00+25ssw4549100 1.4 10091539
18:00+25sw244929 0.2 10091504
21:00+17ese118315 0.8 101012